Weather History for KLNS - April, 2014

Change the Weather History Date:

Friday, April 11, 2014

  Actual Average Record
Temperature  
Mean Temperature 60 °F -  
Max Temperature 73 °F 59 °F 84 °F (2011)
Min Temperature 48 °F 36 °F 24 °F (2007)
Degree Days  
Heating Degree Days 4    
Growing Degree Days 10 (Base 50)    
Moisture  
Dew Point 45 °F    
Average Humidity 68    
Maximum Humidity 100    
Minimum Humidity 33    
Precipitation  
Precipitation 0.06 in - - ()
Sea Level Pressure  
Sea Level Pressure 30.00 in    
Wind  
Wind Speed 6 mph (West)    
Max Wind Speed 21 mph    
Max Gust Speed 30 mph    
Visibility 7 miles    
Events Fog , Rain    
Averages and records for this station are not official NWS values.
T = Trace of Precipitation, MM = Missing Value Source: NWS Daily Summary

Daily Weather History Graph

Daily Weather History Graph

Search for Another Location

Airport or City:

Trip Planner

Search our weather history database for the weather conditions in past years. The results will help you decide how hot, cold, wet, or windy it might be!

Date:

Astronomy

Apr. 11, 2014 Rise Set
Actual Time 6:33 AM EDT 7:39 PM EDT
Civil Twilight 6:05 AM EDT 8:07 PM EDT
Nautical Twilight 5:32 AM EDT 8:40 PM EDT
Astronomical Twilight 4:57 AM EDT 9:15 PM EDT
Moon 4:17 PM EDT (4/11) 4:27 AM EDT (4/11)
Length of Visible Light 14h 02m
Length of Day
13h 06m
Waxing Gibbous, 87% of the Moon is Illuminated
Apr 11
Waxing Gibbous
Apr 15
Full
Apr 22
Last Quarter
Apr 29
New
May 6
First Quarter

Hourly Weather History & Observations

Time (EDT) Temp. Dew Point Humidity Pressure Visibility Wind Dir Wind Speed Gust Speed Precip Events Conditions
12:53 AM 55.9 °F 35.1 °F 45% 29.98 in 10.0 mi SSW 6.9 mph - N/A   Clear
1:53 AM 57.9 °F 35.1 °F 42% 29.95 in 10.0 mi SSW 11.5 mph - N/A   Clear
2:53 AM 57.0 °F 35.1 °F 44% 29.94 in 10.0 mi Variable 3.5 mph - N/A   Clear
3:53 AM 52.0 °F 35.1 °F 53% 29.95 in 10.0 mi SSE 3.5 mph - N/A   Clear
4:53 AM 51.1 °F 37.0 °F 59% 29.96 in 10.0 mi Calm Calm - N/A   Clear
5:53 AM 51.1 °F 39.0 °F 63% 29.98 in 10.0 mi Calm Calm - N/A   Partly Cloudy
6:53 AM 53.1 °F 39.0 °F 59% 30.01 in 10.0 mi NNW 3.5 mph - N/A   Scattered Clouds
7:53 AM 54.0 °F 39.9 °F 59% 30.03 in 10.0 mi WNW 4.6 mph - N/A   Mostly Cloudy
8:53 AM 57.0 °F 39.9 °F 53% 30.04 in 10.0 mi WSW 4.6 mph - N/A   Scattered Clouds
9:53 AM 61.0 °F 41.0 °F 48% 30.04 in 10.0 mi West 5.8 mph - N/A   Mostly Cloudy
10:53 AM 64.9 °F 41.0 °F 42% 30.04 in 10.0 mi Variable 3.5 mph - N/A   Partly Cloudy
11:53 AM 68.0 °F 39.0 °F 35% 30.01 in 10.0 mi South 4.6 mph - N/A   Clear
12:53 PM 69.1 °F 39.9 °F 35% 29.99 in 10.0 mi West 5.8 mph - N/A   Clear
1:53 PM 73.0 °F 42.1 °F 33% 29.97 in 10.0 mi West 17.3 mph 23.0 mph N/A   Clear
2:53 PM 71.1 °F 41.0 °F 34% 29.95 in 10.0 mi NW 12.7 mph - N/A   Clear
3:53 PM 62.1 °F 48.9 °F 62% 29.98 in 10.0 mi NW 16.1 mph 27.6 mph N/A   Clear
4:53 PM 61.0 °F 48.9 °F 64% 29.98 in 10.0 mi NW 20.7 mph 29.9 mph N/A   Overcast
5:53 PM 59.0 °F 50.0 °F 72% 29.99 in 10.0 mi WNW 10.4 mph - N/A   Overcast
6:53 PM 57.0 °F 52.0 °F 83% 30.02 in 5.0 mi WNW 6.9 mph - 0.01 in Rain Rain
7:53 PM 55.9 °F 52.0 °F 87% 30.01 in 5.0 mi NW 4.6 mph - 0.05 in Rain Rain
8:53 PM 55.9 °F 53.1 °F 90% 30.02 in 9.0 mi South 5.8 mph - 0.00 in Rain Light Rain
9:53 PM 55.9 °F 53.1 °F 90% 30.03 in 7.0 mi West 3.5 mph - 0.00 in   Mostly Cloudy
10:46 PM 54.0 °F 53.1 °F 97% 30.03 in 1.8 mi WNW 3.5 mph - N/A   Partly Cloudy
10:53 PM 53.1 °F 52.0 °F 96% 30.03 in 0.5 mi NW 3.5 mph - N/A Fog Fog
11:02 PM 52.0 °F 51.1 °F 97% 30.03 in 0.2 mi WNW 3.5 mph - N/A Fog Fog
11:26 PM 52.0 °F 51.1 °F 97% 30.03 in 0.5 mi Calm Calm - N/A Fog Fog
11:33 PM 53.1 °F 52.0 °F 96% 30.03 in 2.0 mi Calm Calm - N/A   Clear
11:39 PM 52.0 °F 52.0 °F 100% 30.04 in 0.8 mi Calm Calm - N/A   Mist
11:45 PM 48.9 °F 48.0 °F 97% 30.04 in 0.2 mi Calm Calm - N/A Fog Fog
11:53 PM 50.0 °F 48.9 °F 96% 30.04 in 0.2 mi WNW 3.5 mph - N/A Fog Fog